エラスムス彗星

C/2020 S3 ( Erasmus )

English version
Home page
Updated on September 18, 2021

---------------------------------------------------------------------

・ プロフィール

発見日 2020年9月17日
発見光度 18.4等
発見者 Nicolas Erasmus (Asteroid Terrestrial-Impact Last Alert System (ATLAS) search program)

・ 写真集

・ 軌道要素

Epoch 2020 Dec. 17.0 TT = JDT 2459200.5
T 2020 Dec. 12.66949 TT                                 Rudenko
q   0.3985200            (2000.0)            P               Q
z  +0.0052459      Peri.  349.88162     -0.83269652     +0.50292898
 +/-0.0000025      Node   222.99698     -0.48133538     -0.86426788
e   0.9979094      Incl.   19.86087     -0.27373846     -0.01017212
From 603 observations 2020 Sept. 17-2021 Aug. 29, mean residual 0".7.

・ 星図

・ 光度変化

        m1 = 8.3 + 5 logΔ + 10.0 log r(t - 5)

---------------------------------------------------------------------

軌道要素はM.P.E.C. 2021-R75に掲載されたものです。
星図はステラナビゲータ Ver.10 (アストロアーツ) で作成したものです。
光度グラフはComet for Windowsで作成したものです。

---------------------------------------------------------------------

Copyright(C) Seiichi Yoshida (comet@aerith.net). All rights reserved.